Time,TemperatureF,DewpointF,PressureIn,WindDirection,WindDirectionDegrees,WindSpeedMPH,WindSpeedGustMPH,Humidity,HourlyPrecipIn,Conditions,Clouds,dailyrainin,SoftwareType,DateUTC
2013-01-24 00:04:00,56.3,47.5,29.15,WSW,248,0.0,0.0,73,0.00,,,0.00,WSDL version 420,2013-01-24 06:04:00,
2013-01-24 00:09:00,56.3,47.6,29.15,WSW,248,0.0,0.0,72,0.00,,,0.00,WSDL version 420,2013-01-24 06:09:00,
2013-01-24 00:14:00,56.3,47.4,29.15,WSW,248,0.0,0.0,72,0.00,,,0.00,WSDL version 420,2013-01-24 06:14:00,
2013-01-24 00:19:00,56.3,47.4,29.15,WSW,248,0.0,0.0,72,0.00,,,0.00,WSDL version 420,2013-01-24 06:19:00,
2013-01-24 00:24:00,56.2,47.6,29.15,WSW,248,0.0,0.0,73,0.00,,,0.00,WSDL version 420,2013-01-24 06:24:00,
2013-01-24 00:29:00,56.1,47.6,29.15,WSW,248,0.0,0.0,73,0.00,,,0.00,WSDL version 420,2013-01-24 06:29:00,
2013-01-24 00:34:00,56.2,47.7,29.15,WSW,248,0.0,0.0,73,0.00,,,0.00,WSDL version 420,2013-01-24 06:34:00,
2013-01-24 00:39:00,56.3,47.8,29.15,WSW,248,0.0,0.0,73,0.00,,,0.00,WSDL version 420,2013-01-24 06:39:00,
2013-01-24 00:44:00,56.5,48.3,29.15,WSW,248,0.0,0.0,74,0.00,,,0.00,WSDL version 420,2013-01-24 06:44:00,
2013-01-24 00:49:00,56.7,48.5,29.15,WSW,248,0.0,0.0,74,0.00,,,0.00,WSDL version 420,2013-01-24 06:49:00,
2013-01-24 00:54:00,56.7,48.8,29.15,WSW,248,0.0,0.0,75,0.00,,,0.00,WSDL version 420,2013-01-24 06:54:00,
2013-01-24 00:59:00,56.6,48.8,29.15,SW,225,0.0,0.0,76,0.00,,,0.00,WSDL version 420,2013-01-24 06:59:00,
2013-01-24 01:04:00,56.7,49.2,29.15,WNW,293,0.0,0.0,76,0.00,,,0.00,WSDL version 420,2013-01-24 07:04:00,
2013-01-24 01:09:00,56.7,49.0,29.15,WNW,293,0.0,0.0,76,0.00,,,0.00,WSDL version 420,2013-01-24 07:09:00,
2013-01-24 01:14:00,56.7,49.1,29.15,SSW,197,0.4,2.0,76,0.00,,,0.00,WSDL version 420,2013-01-24 07:14:00,
2013-01-24 01:19:00,56.8,49.6,29.15,SSW,203,0.1,2.0,77,0.00,,,0.00,WSDL version 420,2013-01-24 07:19:00,
2013-01-24 01:24:00,56.9,49.8,29.15,WSW,248,0.0,1.6,77,0.00,,,0.00,WSDL version 420,2013-01-24 07:24:00,
2013-01-24 01:29:00,57.0,50.1,29.15,SW,225,0.0,1.1,78,0.00,,,0.00,WSDL version 420,2013-01-24 07:29:00,
2013-01-24 01:34:00,57.0,50.0,29.15,SW,225,0.0,0.0,78,0.00,,,0.00,WSDL version 420,2013-01-24 07:34:00,
2013-01-24 01:39:00,56.8,49.8,29.15,SW,225,0.0,0.0,76,0.00,,,0.00,WSDL version 420,2013-01-24 07:39:00,
2013-01-24 01:44:00,56.8,49.6,29.15,WSW,240,0.0,1.1,76,0.00,,,0.00,WSDL version 420,2013-01-24 07:44:00,
2013-01-24 01:49:00,56.8,49.7,29.15,SW,231,0.1,1.3,77,0.00,,,0.00,WSDL version 420,2013-01-24 07:49:00,
2013-01-24 01:54:00,56.8,49.9,29.15,SSW,195,0.5,1.3,78,0.00,,,0.00,WSDL version 420,2013-01-24 07:54:00,
2013-01-24 01:59:00,56.8,50.3,29.15,South,180,0.3,1.3,79,0.00,,,0.00,WSDL version 420,2013-01-24 07:59:00,
2013-01-24 02:04:00,56.8,50.5,29.15,South,173,1.0,1.3,80,0.00,,,0.00,WSDL version 420,2013-01-24 08:04:00,
2013-01-24 02:09:00,57.0,50.9,29.15,South,178,0.7,1.6,80,0.00,,,0.00,WSDL version 420,2013-01-24 08:09:00,
2013-01-24 02:14:00,57.0,51.2,29.15,South,180,0.1,1.6,81,0.00,,,0.00,WSDL version 420,2013-01-24 08:14:00,
2013-01-24 02:19:00,57.0,51.3,29.15,SSE,158,0.8,1.3,81,0.00,,,0.00,WSDL version 420,2013-01-24 08:19:00,
2013-01-24 02:24:00,56.8,50.9,29.15,South,180,0.1,1.3,80,0.00,,,0.00,WSDL version 420,2013-01-24 08:24:00,
2013-01-24 02:29:00,56.8,50.7,29.15,SSW,203,0.0,1.3,80,0.00,,,0.00,WSDL version 420,2013-01-24 08:29:00,
2013-01-24 02:34:00,56.7,50.5,29.15,SSW,203,0.0,0.0,80,0.00,,,0.00,WSDL version 420,2013-01-24 08:34:00,
2013-01-24 02:39:00,56.7,50.4,29.15,WSW,248,0.0,1.1,79,0.00,,,0.00,WSDL version 420,2013-01-24 08:39:00,
2013-01-24 02:44:00,56.6,50.3,29.15,SW,233,0.0,1.1,80,0.00,,,0.00,WSDL version 420,2013-01-24 08:44:00,
2013-01-24 02:49:00,56.6,50.8,29.15,South,188,0.3,1.3,81,0.00,,,0.00,WSDL version 420,2013-01-24 08:49:00,
2013-01-24 02:54:00,56.7,51.2,29.15,SSE,158,0.1,1.3,82,0.00,,,0.00,WSDL version 420,2013-01-24 08:54:00,
2013-01-24 02:59:00,56.7,51.2,29.15,WSW,248,0.0,1.3,82,0.00,,,0.00,WSDL version 420,2013-01-24 08:59:00,
2013-01-24 03:04:00,56.7,51.3,29.15,WSW,248,0.0,0.0,82,0.00,,,0.00,WSDL version 420,2013-01-24 09:04:00,
2013-01-24 03:09:00,56.5,51.1,29.15,WSW,238,0.0,1.1,82,0.00,,,0.00,WSDL version 420,2013-01-24 09:09:00,
2013-01-24 03:14:00,56.4,51.0,29.15,SW,225,0.0,1.1,82,0.00,,,0.00,WSDL version 420,2013-01-24 09:14:00,
2013-01-24 03:19:00,56.3,51.0,29.15,SSW,203,0.9,1.3,82,0.00,,,0.00,WSDL version 420,2013-01-24 09:19:00,
2013-01-24 03:24:00,56.3,51.3,29.15,SSW,203,0.0,1.3,82,0.00,,,0.00,WSDL version 420,2013-01-24 09:24:00,
2013-01-24 03:29:00,56.2,50.8,29.15,SSW,203,0.0,1.3,82,0.00,,,0.00,WSDL version 420,2013-01-24 09:29:00,
2013-01-24 03:34:00,56.2,51.2,29.15,SSW,203,0.0,0.0,83,0.00,,,0.00,WSDL version 420,2013-01-24 09:34:00,
2013-01-24 03:39:00,56.2,51.2,29.15,SSW,203,0.0,0.0,83,0.00,,,0.00,WSDL version 420,2013-01-24 09:39:00,
2013-01-24 03:44:00,56.0,51.3,29.15,SSW,203,0.0,0.0,84,0.00,,,0.00,WSDL version 420,2013-01-24 09:44:00,
2013-01-24 03:49:00,55.9,51.3,29.15,SSW,203,0.0,0.0,84,0.00,,,0.00,WSDL version 420,2013-01-24 09:49:00,
2013-01-24 03:54:00,55.8,51.2,29.15,SSW,203,0.0,0.0,84,0.00,,,0.00,WSDL version 420,2013-01-24 09:54:00,
2013-01-24 03:59:00,55.8,51.1,29.15,SSW,203,0.0,0.0,83,0.00,,,0.00,WSDL version 420,2013-01-24 09:59:00,
2013-01-24 04:04:00,55.8,50.6,29.15,SW,236,0.0,0.9,82,0.00,,,0.00,WSDL version 420,2013-01-24 10:04:00,
2013-01-24 04:14:00,56.3,51.1,29.15,SW,225,0.0,3.1,83,0.00,,,0.00,WSDL version 420,2013-01-24 10:14:00,
2013-01-24 04:19:00,56.3,51.3,29.15,SW,225,0.0,1.1,83,0.00,,,0.00,WSDL version 420,2013-01-24 10:19:00,
2013-01-24 04:24:00,56.5,51.6,29.15,SW,225,0.0,0.9,84,0.00,,,0.00,WSDL version 420,2013-01-24 10:24:00,
2013-01-24 04:29:00,56.4,51.8,29.15,SW,225,0.0,0.0,84,0.00,,,0.00,WSDL version 420,2013-01-24 10:29:00,
2013-01-24 04:34:00,56.6,51.9,29.15,SSW,203,0.0,0.9,84,0.00,,,0.00,WSDL version 420,2013-01-24 10:34:00,
2013-01-24 04:39:00,56.7,52.1,29.15,East,90,0.0,0.9,84,0.00,,,0.00,WSDL version 420,2013-01-24 10:39:00,
2013-01-24 04:44:00,56.7,52.1,29.15,East,84,0.0,0.0,86,0.00,,,0.00,WSDL version 420,2013-01-24 10:44:00,
2013-01-24 04:49:00,56.7,52.2,29.15,SSW,203,0.4,2.7,84,0.00,,,0.00,WSDL version 420,2013-01-24 10:49:00,
2013-01-24 04:54:00,56.8,52.2,29.15,WSW,248,0.0,2.7,84,0.00,,,0.00,WSDL version 420,2013-01-24 10:54:00,
2013-01-24 04:59:00,56.8,52.4,29.15,SSW,200,0.4,1.3,86,0.00,,,0.00,WSDL version 420,2013-01-24 10:59:00,
2013-01-24 05:04:00,56.8,52.7,29.15,WSW,238,0.0,1.3,86,0.00,,,0.00,WSDL version 420,2013-01-24 11:04:00,
2013-01-24 05:09:00,57.0,52.9,29.15,SSW,205,0.4,2.7,87,0.00,,,0.00,WSDL version 420,2013-01-24 11:09:00,
2013-01-24 05:14:00,57.3,53.0,29.15,SSW,195,1.1,2.7,86,0.00,,,0.00,WSDL version 420,2013-01-24 11:14:00,
2013-01-24 05:19:00,57.3,53.2,29.15,SSW,205,1.0,2.5,87,0.00,,,0.00,WSDL version 420,2013-01-24 11:19:00,
2013-01-24 05:24:00,57.6,53.3,29.15,SSW,213,1.3,2.7,86,0.00,,,0.00,WSDL version 420,2013-01-24 11:24:00,
2013-01-24 05:29:00,57.7,53.7,29.15,SSW,205,1.6,2.7,87,0.00,,,0.00,WSDL version 420,2013-01-24 11:29:00,
2013-01-24 05:34:00,57.9,54.3,29.15,SW,215,1.8,2.7,88,0.00,,,0.00,WSDL version 420,2013-01-24 11:34:00,
2013-01-24 05:39:00,58.0,54.8,29.15,SW,218,1.4,2.5,89,0.00,,,0.00,WSDL version 420,2013-01-24 11:39:00,
2013-01-24 05:44:00,58.1,55.1,29.15,SW,228,1.4,3.4,90,0.00,,,0.00,WSDL version 420,2013-01-24 11:44:00,
2013-01-24 05:49:00,58.3,55.4,29.15,SW,220,1.6,4.3,91,0.00,,,0.00,WSDL version 420,2013-01-24 11:49:00,
2013-01-24 05:54:00,58.4,55.8,29.15,SW,222,1.8,4.3,91,0.00,,,0.00,WSDL version 420,2013-01-24 11:54:00,
2013-01-24 05:59:00,58.5,55.9,29.15,SW,223,0.7,4.0,91,0.00,,,0.00,WSDL version 420,2013-01-24 11:59:00,
2013-01-24 06:04:00,58.5,56.1,29.15,SW,231,1.1,4.3,92,0.00,,,0.00,WSDL version 420,2013-01-24 12:04:00,
2013-01-24 06:09:00,58.5,56.2,29.15,SW,215,1.3,4.3,92,0.00,,,0.00,WSDL version 420,2013-01-24 12:09:00,
2013-01-24 06:14:00,58.6,56.4,29.15,SW,218,1.2,2.7,92,0.00,,,0.00,WSDL version 420,2013-01-24 12:14:00,
2013-01-24 06:19:00,58.8,56.6,29.15,SSW,200,1.4,2.7,92,0.00,,,0.00,WSDL version 420,2013-01-24 12:19:00,
2013-01-24 06:24:00,58.9,56.8,29.15,SSW,203,1.0,2.7,92,0.00,,,0.00,WSDL version 420,2013-01-24 12:24:00,
2013-01-24 06:29:00,59.0,56.7,29.15,SW,228,1.3,2.2,92,0.00,,,0.00,WSDL version 420,2013-01-24 12:29:00,
2013-01-24 06:34:00,59.0,56.7,29.15,SSW,208,1.7,2.9,92,0.00,,,0.00,WSDL version 420,2013-01-24 12:34:00,
2013-01-24 06:39:00,59.2,57.1,29.15,SSW,205,1.3,2.9,93,0.00,,,0.00,WSDL version 420,2013-01-24 12:39:00,
2013-01-24 06:44:00,59.4,57.4,29.15,SSW,198,1.4,4.0,93,0.00,,,0.00,WSDL version 420,2013-01-24 12:44:00,
2013-01-24 06:49:00,59.5,57.6,29.15,WSW,250,1.1,4.0,93,0.00,,,0.00,WSDL version 420,2013-01-24 12:49:00,
2013-01-24 06:54:00,59.6,57.6,29.15,SSW,200,1.2,2.7,93,0.00,,,0.00,WSDL version 420,2013-01-24 12:54:00,
2013-01-24 06:59:00,59.7,57.8,29.15,SW,217,1.0,2.7,93,0.00,,,0.00,WSDL version 420,2013-01-24 12:59:00,
2013-01-24 07:04:00,59.7,57.8,29.15,SSW,200,1.4,2.5,93,0.00,,,0.00,WSDL version 420,2013-01-24 13:04:00,
2013-01-24 07:09:00,59.9,58.0,29.15,SW,235,1.3,2.7,93,0.00,,,0.00,WSDL version 420,2013-01-24 13:09:00,
2013-01-24 07:14:00,60.0,58.1,29.15,West,273,1.2,3.1,93,0.00,,,0.00,WSDL version 420,2013-01-24 13:14:00,
2013-01-24 07:19:00,60.2,58.2,29.15,SW,235,1.6,3.1,93,0.00,,,0.00,WSDL version 420,2013-01-24 13:19:00,
2013-01-24 07:24:00,60.3,58.3,29.15,WSW,238,1.0,2.7,93,0.00,,,0.00,WSDL version 420,2013-01-24 13:24:00,
2013-01-24 07:29:00,60.3,58.4,29.15,SW,233,1.2,2.5,93,0.00,,,0.00,WSDL version 420,2013-01-24 13:29:00,
2013-01-24 07:34:00,60.4,58.5,29.15,WSW,255,1.4,2.9,93,0.00,,,0.00,WSDL version 420,2013-01-24 13:34:00,
2013-01-24 07:39:00,60.5,58.9,29.15,WSW,250,1.3,3.1,94,0.00,,,0.00,WSDL version 420,2013-01-24 13:39:00,
2013-01-24 07:44:00,60.6,59.0,29.15,SW,233,1.3,3.1,94,0.00,,,0.00,WSDL version 420,2013-01-24 13:44:00,
2013-01-24 07:49:00,60.7,58.9,29.15,SSW,211,0.4,2.7,93,0.00,,,0.00,WSDL version 420,2013-01-24 13:49:00,
2013-01-24 07:54:00,60.8,58.9,29.15,SSW,203,1.1,2.5,93,0.00,,,0.00,WSDL version 420,2013-01-24 13:54:00,
2013-01-24 07:59:00,60.9,59.0,29.15,SSW,213,1.5,2.5,93,0.00,,,0.00,WSDL version 420,2013-01-24 13:59:00,
2013-01-24 08:04:00,61.1,59.2,29.15,WSW,239,1.1,2.5,93,0.00,,,0.00,WSDL version 420,2013-01-24 14:04:00,
2013-01-24 08:09:00,61.3,59.3,29.15,SW,220,1.3,2.7,93,0.00,,,0.00,WSDL version 420,2013-01-24 14:09:00,
2013-01-24 08:14:00,61.4,59.5,29.18,SSW,203,1.1,2.7,93,0.00,,,0.00,WSDL version 420,2013-01-24 14:14:00,
2013-01-24 08:19:00,61.6,59.6,29.18,SSW,200,1.7,2.7,92,0.00,,,0.00,WSDL version 420,2013-01-24 14:19:00,
2013-01-24 08:24:00,61.9,59.6,29.18,SSW,205,1.4,3.1,92,0.00,,,0.00,WSDL version 420,2013-01-24 14:24:00,
2013-01-24 08:29:00,62.0,59.7,29.15,SW,215,1.2,3.1,92,0.00,,,0.00,WSDL version 420,2013-01-24 14:29:00,
2013-01-24 08:34:00,62.2,59.9,29.15,South,180,1.2,2.9,92,0.00,,,0.00,WSDL version 420,2013-01-24 14:34:00,
2013-01-24 08:39:00,62.3,59.9,29.15,SW,231,1.5,2.9,91,0.00,,,0.00,WSDL version 420,2013-01-24 14:39:00,
2013-01-24 08:44:00,62.5,59.9,29.15,SSW,195,2.0,3.1,91,0.00,,,0.00,WSDL version 420,2013-01-24 14:44:00,
2013-01-24 08:49:00,62.7,59.8,29.15,WSW,253,1.4,3.1,90,0.00,,,0.00,WSDL version 420,2013-01-24 14:49:00,
2013-01-24 08:54:00,63.0,60.0,29.15,SW,220,1.2,2.5,90,0.00,,,0.00,WSDL version 420,2013-01-24 14:54:00,
2013-01-24 08:59:00,63.1,59.9,29.18,SW,231,1.6,2.7,89,0.00,,,0.00,WSDL version 420,2013-01-24 14:59:00,
2013-01-24 09:04:00,63.3,60.0,29.18,SW,233,1.7,3.1,89,0.00,,,0.00,WSDL version 420,2013-01-24 15:04:00,
2013-01-24 09:09:00,63.6,60.0,29.18,WSW,238,1.3,3.4,88,0.00,,,0.00,WSDL version 420,2013-01-24 15:09:00,
2013-01-24 09:14:00,63.9,60.2,29.18,SW,233,1.5,3.4,88,0.00,,,0.00,WSDL version 420,2013-01-24 15:14:00,
2013-01-24 09:19:00,64.3,60.2,29.18,WSW,248,1.7,3.4,86,0.00,,,0.00,WSDL version 420,2013-01-24 15:19:00,
2013-01-24 09:24:00,64.6,60.2,29.18,SW,217,1.3,3.4,84,0.00,,,0.00,WSDL version 420,2013-01-24 15:24:00,
2013-01-24 09:29:00,64.9,60.0,29.18,SW,220,1.8,2.9,83,0.00,,,0.00,WSDL version 420,2013-01-24 15:29:00,
2013-01-24 09:34:00,65.2,59.9,29.18,SSW,203,1.8,2.9,82,0.00,,,0.00,WSDL version 420,2013-01-24 15:34:00,
2013-01-24 09:39:00,65.8,60.1,29.18,SW,233,2.0,4.3,81,0.00,,,0.00,WSDL version 420,2013-01-24 15:39:00,
2013-01-24 09:44:00,66.1,59.7,29.18,SW,218,1.6,4.3,80,0.00,,,0.00,WSDL version 420,2013-01-24 15:44:00,
2013-01-24 09:49:00,66.6,59.6,29.18,SW,214,2.3,3.4,78,0.00,,,0.00,WSDL version 420,2013-01-24 15:49:00,
2013-01-24 09:54:00,66.9,59.6,29.18,SW,223,2.1,3.4,77,0.00,,,0.00,WSDL version 420,2013-01-24 15:54:00,
2013-01-24 09:59:00,67.3,59.8,29.18,SW,219,1.8,3.4,76,0.00,,,0.00,WSDL version 420,2013-01-24 15:59:00,
2013-01-24 10:04:00,67.8,59.6,29.18,SSW,213,2.0,3.1,74,0.00,,,0.00,WSDL version 420,2013-01-24 16:04:00,
2013-01-24 10:09:00,68.3,59.1,29.18,SW,233,2.0,3.1,72,0.00,,,0.00,WSDL version 420,2013-01-24 16:09:00,
2013-01-24 10:14:00,68.9,59.1,29.18,SW,233,2.6,4.3,70,0.00,,,0.00,WSDL version 420,2013-01-24 16:14:00,
2013-01-24 10:19:00,69.2,58.9,29.18,SW,218,2.1,4.3,69,0.00,,,0.00,WSDL version 420,2013-01-24 16:19:00,
2013-01-24 10:24:00,69.5,58.8,29.18,SW,228,2.5,4.9,68,0.00,,,0.00,WSDL version 420,2013-01-24 16:24:00,
2013-01-24 10:29:00,69.8,58.5,29.18,SW,230,1.9,4.9,67,0.00,,,0.00,WSDL version 420,2013-01-24 16:29:00,
2013-01-24 10:34:00,70.7,59.1,29.18,WSW,248,1.7,3.4,66,0.00,,,0.00,WSDL version 420,2013-01-24 16:34:00,
2013-01-24 10:39:00,71.3,58.9,29.18,WSW,248,1.4,4.3,65,0.00,,,0.00,WSDL version 420,2013-01-24 16:39:00,
2013-01-24 10:44:00,71.2,57.7,29.18,SW,231,1.6,4.7,62,0.00,,,0.00,WSDL version 420,2013-01-24 16:44:00,
2013-01-24 10:49:00,71.6,57.7,29.18,SW,233,2.2,4.7,61,0.00,,,0.00,WSDL version 420,2013-01-24 16:49:00,
2013-01-24 10:54:00,72.4,58.0,29.18,SW,225,2.3,3.8,61,0.00,,,0.00,WSDL version 420,2013-01-24 16:54:00,
2013-01-24 10:59:00,72.8,57.8,29.15,SSW,203,1.8,4.9,59,0.00,,,0.00,WSDL version 420,2013-01-24 16:59:00,
2013-01-24 11:04:00,73.6,58.0,29.15,SW,215,1.8,4.9,58,0.00,,,0.00,WSDL version 420,2013-01-24 17:04:00,
2013-01-24 11:09:00,74.5,58.1,29.15,WSW,253,2.1,3.8,55,0.00,,,0.00,WSDL version 420,2013-01-24 17:09:00,
2013-01-24 11:14:00,75.1,57.3,29.15,WSW,245,2.2,4.9,53,0.00,,,0.00,WSDL version 420,2013-01-24 17:14:00,
2013-01-24 11:19:00,75.4,56.2,29.15,SW,225,2.0,4.9,52,0.00,,,0.00,WSDL version 420,2013-01-24 17:19:00,
2013-01-24 11:24:00,75.9,56.2,29.15,SW,225,2.3,4.3,51,0.00,,,0.00,WSDL version 420,2013-01-24 17:24:00,
2013-01-24 11:29:00,76.2,56.0,29.15,SW,228,2.6,4.3,49,0.00,,,0.00,WSDL version 420,2013-01-24 17:29:00,
2013-01-24 11:34:00,76.5,55.9,29.15,South,188,2.5,4.3,49,0.00,,,0.00,WSDL version 420,2013-01-24 17:34:00,
2013-01-24 11:39:00,76.7,55.9,29.15,SW,220,2.5,4.3,48,0.00,,,0.00,WSDL version 420,2013-01-24 17:39:00,
2013-01-24 11:44:00,76.9,55.4,29.15,SW,214,2.0,3.8,48,0.00,,,0.00,WSDL version 420,2013-01-24 17:44:00,
2013-01-24 11:49:00,76.4,54.7,29.15,WSW,245,2.6,4.7,48,0.00,,,0.00,WSDL version 420,2013-01-24 17:49:00,
2013-01-24 11:54:00,76.4,54.7,29.15,SW,236,2.5,4.7,47,0.00,,,0.00,WSDL version 420,2013-01-24 17:54:00,
2013-01-24 11:59:00,76.1,54.6,29.12,SSW,200,2.5,4.0,48,0.00,,,0.00,WSDL version 420,2013-01-24 17:59:00,
2013-01-24 12:04:00,77.0,55.6,29.12,SSW,200,2.4,4.0,47,0.00,,,0.00,WSDL version 420,2013-01-24 18:04:00,
2013-01-24 12:09:00,77.7,54.9,29.12,South,180,2.3,3.8,45,0.00,,,0.00,WSDL version 420,2013-01-24 18:09:00,
2013-01-24 12:14:00,77.5,54.7,29.12,South,188,2.6,3.6,45,0.00,,,0.00,WSDL version 420,2013-01-24 18:14:00,
2013-01-24 12:19:00,77.8,54.8,29.12,SW,219,2.3,3.6,45,0.00,,,0.00,WSDL version 420,2013-01-24 18:19:00,
2013-01-24 12:24:00,77.6,54.8,29.12,SSW,211,2.6,3.6,45,0.00,,,0.00,WSDL version 420,2013-01-24 18:24:00,
2013-01-24 12:29:00,77.2,54.0,29.12,South,183,2.6,3.8,44,0.00,,,0.00,WSDL version 420,2013-01-24 18:29:00,
2013-01-24 12:34:00,77.2,53.7,29.12,WSW,243,1.7,3.8,44,0.00,,,0.00,WSDL version 420,2013-01-24 18:34:00,
2013-01-24 12:39:00,77.8,54.3,29.12,SSW,205,2.2,4.3,44,0.00,,,0.00,WSDL version 420,2013-01-24 18:39:00,
2013-01-24 12:44:00,78.3,54.0,29.12,SSW,208,2.0,4.3,43,0.00,,,0.00,WSDL version 420,2013-01-24 18:44:00,
2013-01-24 12:49:00,79.0,54.3,29.12,South,178,2.1,5.6,42,0.00,,,0.00,WSDL version 420,2013-01-24 18:49:00,
2013-01-24 12:54:00,79.3,54.1,29.12,SW,217,2.4,5.6,42,0.00,,,0.00,WSDL version 420,2013-01-24 18:54:00,
2013-01-24 12:59:00,79.3,54.1,29.09,SSW,208,2.2,3.6,41,0.00,,,0.00,WSDL version 420,2013-01-24 18:59:00,
2013-01-24 13:04:00,79.2,53.8,29.09,SSW,203,2.6,5.4,42,0.00,,,0.00,WSDL version 420,2013-01-24 19:04:00,
2013-01-24 13:09:00,79.5,53.8,29.09,SW,233,2.6,5.4,41,0.00,,,0.00,WSDL version 420,2013-01-24 19:09:00,
2013-01-24 13:14:00,79.2,52.8,29.09,WSW,239,2.9,4.9,40,0.00,,,0.00,WSDL version 420,2013-01-24 19:14:00,
2013-01-24 13:19:00,79.0,53.1,29.09,SW,231,2.4,3.6,40,0.00,,,0.00,WSDL version 420,2013-01-24 19:19:00,
2013-01-24 13:24:00,78.6,52.7,29.09,SSW,205,2.6,4.3,41,0.00,,,0.00,WSDL version 420,2013-01-24 19:24:00,
2013-01-24 13:29:00,78.0,52.4,29.09,South,169,2.6,4.9,41,0.00,,,0.00,WSDL version 420,2013-01-24 19:29:00,
2013-01-24 13:34:00,77.9,52.4,29.09,SW,222,2.0,4.9,41,0.00,,,0.00,WSDL version 420,2013-01-24 19:34:00,
2013-01-24 13:39:00,78.0,52.8,29.09,SSW,205,2.7,4.9,41,0.00,,,0.00,WSDL version 420,2013-01-24 19:39:00,
2013-01-24 13:44:00,77.9,52.4,29.09,West,265,2.9,4.9,41,0.00,,,0.00,WSDL version 420,2013-01-24 19:44:00,
2013-01-24 13:49:00,78.0,52.4,29.09,SSE,168,2.0,4.9,41,0.00,,,0.00,WSDL version 420,2013-01-24 19:49:00,
2013-01-24 13:54:00,77.9,52.4,29.09,WSW,242,2.0,3.6,42,0.00,,,0.00,WSDL version 420,2013-01-24 19:54:00,
2013-01-24 13:59:00,78.5,53.3,29.06,SSW,200,2.6,4.3,41,0.00,,,0.00,WSDL version 420,2013-01-24 19:59:00,
2013-01-24 14:04:00,78.6,52.8,29.06,SW,217,2.3,4.3,40,0.00,,,0.00,WSDL version 420,2013-01-24 20:04:00,
2013-01-24 14:09:00,79.1,53.0,29.06,WSW,253,2.3,3.6,40,0.00,,,0.00,WSDL version 420,2013-01-24 20:09:00,
2013-01-24 14:14:00,79.5,52.9,29.06,WSW,242,2.7,4.9,40,0.00,,,0.00,WSDL version 420,2013-01-24 20:14:00,
2013-01-24 14:19:00,79.7,52.7,29.06,SW,225,2.8,4.9,39,0.00,,,0.00,WSDL version 420,2013-01-24 20:19:00,
2013-01-24 14:24:00,79.7,51.6,29.06,SW,223,2.7,4.9,38,0.00,,,0.00,WSDL version 420,2013-01-24 20:24:00,
2013-01-24 14:29:00,80.0,52.0,29.06,SSW,208,2.2,4.9,38,0.00,,,0.00,WSDL version 420,2013-01-24 20:29:00,
2013-01-24 14:34:00,80.2,52.3,29.06,SSE,168,2.5,3.8,38,0.00,,,0.00,WSDL version 420,2013-01-24 20:34:00,
2013-01-24 14:39:00,80.1,52.3,29.06,SW,215,2.1,3.6,38,0.00,,,0.00,WSDL version 420,2013-01-24 20:39:00,
2013-01-24 14:44:00,80.4,51.4,29.06,SSW,205,2.1,3.6,37,0.00,,,0.00,WSDL version 420,2013-01-24 20:44:00,
2013-01-24 14:49:00,80.4,52.0,29.06,SSW,193,1.9,3.4,38,0.00,,,0.00,WSDL version 420,2013-01-24 20:49:00,
2013-01-24 14:54:00,80.4,52.5,29.06,SW,235,1.8,3.1,38,0.00,,,0.00,WSDL version 420,2013-01-24 20:54:00,
2013-01-24 14:59:00,80.6,52.7,29.06,South,188,2.4,3.4,38,0.00,,,0.00,WSDL version 420,2013-01-24 20:59:00,
2013-01-24 15:04:00,80.9,53.5,29.06,West,260,1.8,3.4,39,0.00,,,0.00,WSDL version 420,2013-01-24 21:04:00,
2013-01-24 15:09:00,81.0,53.0,29.06,SSE,150,2.2,4.0,38,0.00,,,0.00,WSDL version 420,2013-01-24 21:09:00,
2013-01-24 15:14:00,80.5,52.8,29.06,South,188,2.2,4.0,39,0.00,,,0.00,WSDL version 420,2013-01-24 21:14:00,
2013-01-24 15:19:00,80.8,53.3,29.06,South,173,1.5,3.4,39,0.00,,,0.00,WSDL version 420,2013-01-24 21:19:00,
2013-01-24 15:24:00,80.8,53.4,29.06,ESE,104,1.6,3.8,39,0.00,,,0.00,WSDL version 420,2013-01-24 21:24:00,
2013-01-24 15:29:00,80.7,52.9,29.06,South,188,2.4,3.8,38,0.00,,,0.00,WSDL version 420,2013-01-24 21:29:00,
2013-01-24 15:34:00,80.8,52.6,29.06,SSW,203,2.5,4.0,37,0.00,,,0.00,WSDL version 420,2013-01-24 21:34:00,
2013-01-24 15:39:00,80.8,52.6,29.06,SSW,211,1.7,4.7,37,0.00,,,0.00,WSDL version 420,2013-01-24 21:39:00,
2013-01-24 15:44:00,81.0,52.3,29.03,SW,215,2.4,4.7,37,0.00,,,0.00,WSDL version 420,2013-01-24 21:44:00,
2013-01-24 15:49:00,81.2,51.8,29.03,West,270,1.8,3.4,36,0.00,,,0.00,WSDL version 420,2013-01-24 21:49:00,
2013-01-24 15:54:00,81.3,50.9,29.03,SW,218,2.1,3.1,35,0.00,,,0.00,WSDL version 420,2013-01-24 21:54:00,
2013-01-24 15:59:00,81.1,50.9,29.03,South,180,2.3,3.4,35,0.00,,,0.00,WSDL version 420,2013-01-24 21:59:00,
2013-01-24 16:04:00,81.1,51.3,29.03,SSW,208,2.4,3.8,35,0.00,,,0.00,WSDL version 420,2013-01-24 22:04:00,
2013-01-24 16:09:00,81.0,51.1,29.03,SW,223,2.7,4.9,36,0.00,,,0.00,WSDL version 420,2013-01-24 22:09:00,
2013-01-24 16:14:00,80.8,51.4,29.03,SSW,203,2.6,4.9,36,0.00,,,0.00,WSDL version 420,2013-01-24 22:14:00,
2013-01-24 16:19:00,80.7,51.4,29.03,SW,220,2.1,3.6,37,0.00,,,0.00,WSDL version 420,2013-01-24 22:19:00,
2013-01-24 16:24:00,80.4,51.4,29.03,SSW,211,2.3,3.6,36,0.00,,,0.00,WSDL version 420,2013-01-24 22:24:00,
2013-01-24 16:29:00,79.8,51.3,29.03,SSE,153,2.1,3.6,37,0.00,,,0.00,WSDL version 420,2013-01-24 22:29:00,
2013-01-24 16:34:00,79.2,51.0,29.03,SW,219,1.8,3.8,38,0.00,,,0.00,WSDL version 420,2013-01-24 22:34:00,
2013-01-24 16:39:00,78.8,51.0,29.03,South,183,1.5,4.0,38,0.00,,,0.00,WSDL version 420,2013-01-24 22:39:00,
2013-01-24 16:44:00,78.3,50.6,29.03,South,190,2.4,4.0,38,0.00,,,0.00,WSDL version 420,2013-01-24 22:44:00,
2013-01-24 16:49:00,77.9,50.7,29.03,SSW,197,2.5,3.8,39,0.00,,,0.00,WSDL version 420,2013-01-24 22:49:00,
2013-01-24 16:54:00,77.5,50.5,29.03,SSW,210,1.6,4.3,39,0.00,,,0.00,WSDL version 420,2013-01-24 22:54:00,
2013-01-24 16:59:00,77.0,50.3,29.06,SSE,163,1.6,4.3,40,0.00,,,0.00,WSDL version 420,2013-01-24 22:59:00,
2013-01-24 17:04:00,76.6,50.5,29.06,South,175,1.9,3.4,40,0.00,,,0.00,WSDL version 420,2013-01-24 23:04:00,
2013-01-24 17:09:00,76.2,50.2,29.06,SW,217,2.0,3.8,40,0.00,,,0.00,WSDL version 420,2013-01-24 23:09:00,
2013-01-24 17:14:00,75.8,49.8,29.03,SSW,198,2.3,3.8,40,0.00,,,0.00,WSDL version 420,2013-01-24 23:14:00,
2013-01-24 17:19:00,75.5,49.9,29.03,South,190,1.6,3.4,41,0.00,,,0.00,WSDL version 420,2013-01-24 23:19:00,
2013-01-24 17:24:00,75.0,49.9,29.03,SSW,194,1.4,3.1,42,0.00,,,0.00,WSDL version 420,2013-01-24 23:24:00,
2013-01-24 17:29:00,74.4,49.9,29.03,SSW,198,1.9,2.9,42,0.00,,,0.00,WSDL version 420,2013-01-24 23:29:00,
2013-01-24 17:34:00,73.9,49.4,29.03,South,183,2.0,3.4,42,0.00,,,0.00,WSDL version 420,2013-01-24 23:34:00,
2013-01-24 17:39:00,73.6,49.1,29.03,SSW,203,1.3,3.4,42,0.00,,,0.00,WSDL version 420,2013-01-24 23:39:00,
2013-01-24 17:44:00,73.1,49.3,29.03,South,183,1.6,3.4,43,0.00,,,0.00,WSDL version 420,2013-01-24 23:44:00,
2013-01-24 17:49:00,72.8,49.0,29.03,ESE,110,1.2,2.7,43,0.00,,,0.00,WSDL version 420,2013-01-24 23:49:00,
2013-01-24 17:54:00,72.4,48.9,29.03,SW,235,0.7,2.5,44,0.00,,,0.00,WSDL version 420,2013-01-24 23:54:00,
2013-01-24 17:59:00,71.9,48.8,29.03,South,177,1.0,2.5,44,0.00,,,0.00,WSDL version 420,2013-01-24 23:59:00,
2013-01-24 18:04:00,71.4,48.9,29.03,WSW,243,0.4,2.5,45,0.00,,,0.00,WSDL version 420,2013-01-25 00:04:00,
2013-01-24 18:09:00,71.0,48.7,29.03,SE,143,0.0,1.6,46,0.00,,,0.00,WSDL version 420,2013-01-25 00:09:00,
2013-01-24 18:14:00,70.6,48.8,29.03,SSE,168,0.0,1.3,46,0.00,,,0.00,WSDL version 420,2013-01-25 00:14:00,
2013-01-24 18:19:00,70.2,48.5,29.03,South,186,0.0,1.3,46,0.00,,,0.00,WSDL version 420,2013-01-25 00:19:00,
2013-01-24 18:24:00,69.9,48.6,29.03,South,180,0.4,1.1,47,0.00,,,0.00,WSDL version 420,2013-01-25 00:24:00,
2013-01-24 18:29:00,69.5,48.7,29.06,South,185,0.0,1.1,48,0.00,,,0.00,WSDL version 420,2013-01-25 00:29:00,
2013-01-24 18:34:00,69.1,48.6,29.06,SSE,155,0.0,1.1,48,0.00,,,0.00,WSDL version 420,2013-01-25 00:34:00,
2013-01-24 18:39:00,68.9,48.8,29.06,SSE,158,0.0,1.6,49,0.00,,,0.00,WSDL version 420,2013-01-25 00:39:00,
2013-01-24 18:44:00,68.5,48.9,29.03,SSE,166,1.0,1.6,50,0.00,,,0.00,WSDL version 420,2013-01-25 00:44:00,
2013-01-24 18:49:00,68.4,48.9,29.03,South,170,1.0,2.0,50,0.00,,,0.00,WSDL version 420,2013-01-25 00:49:00,
2013-01-24 18:54:00,68.1,48.9,29.03,South,172,0.0,2.0,51,0.00,,,0.00,WSDL version 420,2013-01-25 00:54:00,
2013-01-24 18:59:00,67.7,48.9,29.03,SSE,158,0.0,1.3,51,0.00,,,0.00,WSDL version 420,2013-01-25 00:59:00,
2013-01-24 19:04:00,67.3,48.9,29.03,SSE,158,0.0,1.3,52,0.00,,,0.00,WSDL version 420,2013-01-25 01:04:00,
2013-01-24 19:09:00,66.9,48.7,29.03,SSE,158,0.0,0.0,52,0.00,,,0.00,WSDL version 420,2013-01-25 01:09:00,
2013-01-24 19:14:00,66.4,48.3,29.06,SW,225,0.0,0.0,52,0.00,,,0.00,WSDL version 420,2013-01-25 01:14:00,
2013-01-24 19:19:00,66.1,48.5,29.06,SW,225,0.0,0.0,53,0.00,,,0.00,WSDL version 420,2013-01-25 01:19:00,
2013-01-24 19:24:00,65.8,48.9,29.06,SW,225,0.0,0.0,55,0.00,,,0.00,WSDL version 420,2013-01-25 01:24:00,
2013-01-24 19:29:00,65.5,49.2,29.06,SSW,208,0.0,0.0,56,0.00,,,0.00,WSDL version 420,2013-01-25 01:29:00,
2013-01-24 19:34:00,65.5,49.6,29.06,SSW,205,0.6,1.6,56,0.00,,,0.00,WSDL version 420,2013-01-25 01:34:00,
2013-01-24 19:39:00,65.4,49.4,29.06,South,180,0.1,1.6,57,0.00,,,0.00,WSDL version 420,2013-01-25 01:39:00,
2013-01-24 19:44:00,65.1,49.6,29.06,South,180,0.4,1.3,57,0.00,,,0.00,WSDL version 420,2013-01-25 01:44:00,
2013-01-24 19:49:00,64.8,49.3,29.06,South,188,0.0,1.3,58,0.00,,,0.00,WSDL version 420,2013-01-25 01:49:00,
2013-01-24 19:54:00,64.7,49.6,29.06,South,180,0.0,1.3,58,0.00,,,0.00,WSDL version 420,2013-01-25 01:54:00,
2013-01-24 19:59:00,64.5,49.7,29.06,South,180,1.1,1.6,59,0.00,,,0.00,WSDL version 420,2013-01-25 01:59:00,
2013-01-24 20:04:00,64.3,49.9,29.06,South,180,1.0,1.6,60,0.00,,,0.00,WSDL version 420,2013-01-25 02:04:00,
2013-01-24 20:09:00,64.0,49.7,29.06,South,180,0.8,1.6,59,0.00,,,0.00,WSDL version 420,2013-01-25 02:09:00,
2013-01-24 20:14:00,63.9,49.4,29.06,SSW,203,0.7,1.3,59,0.00,,,0.00,WSDL version 420,2013-01-25 02:14:00,
2013-01-24 20:19:00,63.7,50.0,29.06,SSW,203,1.0,1.3,62,0.00,,,0.00,WSDL version 420,2013-01-25 02:19:00,
2013-01-24 20:24:00,63.7,50.9,29.06,SSW,195,0.5,1.6,63,0.00,,,0.00,WSDL version 420,2013-01-25 02:24:00,
2013-01-24 20:29:00,63.7,50.8,29.06,SSW,194,0.6,1.6,63,0.00,,,0.00,WSDL version 420,2013-01-25 02:29:00,
2013-01-24 20:34:00,63.7,50.9,29.06,SSW,198,0.5,1.6,63,0.00,,,0.00,WSDL version 420,2013-01-25 02:34:00,
2013-01-24 20:39:00,63.7,50.9,29.06,South,186,1.0,1.6,63,0.00,,,0.00,WSDL version 420,2013-01-25 02:39:00,
2013-01-24 20:44:00,63.7,51.2,29.06,South,174,1.1,2.0,64,0.00,,,0.00,WSDL version 420,2013-01-25 02:44:00,
2013-01-24 20:49:00,63.7,51.5,29.06,SSW,200,1.1,2.2,64,0.00,,,0.00,WSDL version 420,2013-01-25 02:49:00,
2013-01-24 20:54:00,63.8,51.4,29.06,South,190,1.1,2.2,65,0.00,,,0.00,WSDL version 420,2013-01-25 02:54:00,
2013-01-24 20:59:00,63.9,51.7,29.06,SSW,193,1.2,2.0,65,0.00,,,0.00,WSDL version 420,2013-01-25 02:59:00,
2013-01-24 21:04:00,63.9,51.8,29.06,SSW,203,1.0,2.0,65,0.00,,,0.00,WSDL version 420,2013-01-25 03:04:00,
2013-01-24 21:09:00,63.8,51.4,29.06,SSW,203,0.9,2.0,64,0.00,,,0.00,WSDL version 420,2013-01-25 03:09:00,
2013-01-24 21:14:00,63.7,51.8,29.06,SSW,194,0.3,1.6,65,0.00,,,0.00,WSDL version 420,2013-01-25 03:14:00,
2013-01-24 21:19:00,63.5,51.6,29.06,South,180,0.1,1.6,65,0.00,,,0.00,WSDL version 420,2013-01-25 03:19:00,
2013-01-24 21:24:00,63.3,51.3,29.06,South,190,0.0,1.6,65,0.00,,,0.00,WSDL version 420,2013-01-25 03:24:00,
2013-01-24 21:29:00,63.1,51.5,29.06,SSW,203,0.0,1.3,66,0.00,,,0.00,WSDL version 420,2013-01-25 03:29:00,
2013-01-24 21:34:00,62.7,50.9,29.06,SSW,203,0.0,1.3,65,0.00,,,0.00,WSDL version 420,2013-01-25 03:34:00,
2013-01-24 21:39:00,62.3,50.8,29.06,SSW,203,0.0,0.0,66,0.00,,,0.00,WSDL version 420,2013-01-25 03:39:00,
2013-01-24 21:44:00,62.0,50.5,29.06,SSW,203,0.0,0.0,66,0.00,,,0.00,WSDL version 420,2013-01-25 03:44:00,
2013-01-24 21:49:00,61.8,50.6,29.06,SSW,203,0.0,0.0,67,0.00,,,0.00,WSDL version 420,2013-01-25 03:49:00,
2013-01-24 21:54:00,61.5,50.5,29.06,SSW,203,0.0,0.0,68,0.00,,,0.00,WSDL version 420,2013-01-25 03:54:00,
2013-01-24 21:59:00,61.3,50.5,29.06,SSW,203,0.0,0.0,68,0.00,,,0.00,WSDL version 420,2013-01-25 03:59:00,
2013-01-24 22:04:00,61.2,50.5,29.06,SW,225,0.0,0.9,68,0.00,,,0.00,WSDL version 420,2013-01-25 04:04:00,
2013-01-24 22:09:00,61.2,50.8,29.06,SSW,212,0.0,1.6,69,0.00,,,0.00,WSDL version 420,2013-01-25 04:09:00,
2013-01-24 22:14:00,61.2,50.8,29.06,SSW,203,0.0,1.6,69,0.00,,,0.00,WSDL version 420,2013-01-25 04:14:00,
2013-01-24 22:19:00,61.1,50.8,29.06,SSW,203,0.0,1.1,69,0.00,,,0.00,WSDL version 420,2013-01-25 04:19:00,
2013-01-24 22:24:00,61.0,50.5,29.06,SSW,194,0.0,0.9,69,0.00,,,0.00,WSDL version 420,2013-01-25 04:24:00,
2013-01-24 22:29:00,61.0,50.9,29.06,SSW,203,0.0,1.3,70,0.00,,,0.00,WSDL version 420,2013-01-25 04:29:00,
2013-01-24 22:34:00,61.2,51.5,29.06,South,180,0.8,1.3,71,0.00,,,0.00,WSDL version 420,2013-01-25 04:34:00,
2013-01-24 22:39:00,61.3,51.7,29.06,South,191,0.6,1.6,70,0.00,,,0.00,WSDL version 420,2013-01-25 04:39:00,
2013-01-24 22:44:00,61.2,51.6,29.06,South,180,0.0,1.6,71,0.00,,,0.00,WSDL version 420,2013-01-25 04:44:00,
2013-01-24 22:49:00,61.1,51.7,29.06,South,180,0.0,1.1,71,0.00,,,0.00,WSDL version 420,2013-01-25 04:49:00,
2013-01-24 22:54:00,61.0,51.5,29.06,South,183,0.9,1.1,71,0.00,,,0.00,WSDL version 420,2013-01-25 04:54:00,
2013-01-24 22:59:00,61.0,51.5,29.06,SSW,194,1.4,2.5,71,0.00,,,0.00,WSDL version 420,2013-01-25 04:59:00,
2013-01-24 23:04:00,61.3,51.7,29.06,South,175,1.5,2.5,71,0.00,,,0.00,WSDL version 420,2013-01-25 05:04:00,
2013-01-24 23:09:00,61.6,52.1,29.06,South,183,1.2,2.7,71,0.00,,,0.00,WSDL version 420,2013-01-25 05:09:00,
2013-01-24 23:14:00,61.9,52.3,29.06,South,180,1.6,2.7,70,0.00,,,0.00,WSDL version 420,2013-01-25 05:14:00,
2013-01-24 23:19:00,61.9,52.4,29.06,South,190,1.6,3.1,71,0.00,,,0.00,WSDL version 420,2013-01-25 05:19:00,
2013-01-24 23:24:00,62.1,52.6,29.06,South,177,1.5,3.1,71,0.00,,,0.00,WSDL version 420,2013-01-25 05:24:00,
2013-01-24 23:29:00,62.2,52.6,29.06,South,183,1.7,2.9,70,0.00,,,0.00,WSDL version 420,2013-01-25 05:29:00,
2013-01-24 23:34:00,62.2,52.4,29.06,SSW,199,1.0,2.7,70,0.00,,,0.00,WSDL version 420,2013-01-25 05:34:00,
2013-01-24 23:39:00,62.2,52.4,29.06,SSW,195,1.6,2.9,70,0.00,,,0.00,WSDL version 420,2013-01-25 05:39:00,
2013-01-24 23:44:00,62.4,52.8,29.06,South,178,1.2,2.9,71,0.00,,,0.00,WSDL version 420,2013-01-25 05:44:00,
2013-01-24 23:49:00,62.5,52.6,29.06,South,191,1.5,2.9,70,0.00,,,0.00,WSDL version 420,2013-01-25 05:49:00,
2013-01-24 23:54:00,62.6,52.7,29.06,SSE,160,1.9,3.1,70,0.00,,,0.00,WSDL version 420,2013-01-25 05:54:00,
2013-01-24 23:59:00,62.6,52.9,29.06,SSE,161,2.2,3.4,71,0.00,,,0.00,WSDL version 420,2013-01-25 05:59:00,